Location: Joplin, MO
(37.0842°N, 94.5133°W)
Time: 17:32:45
(UTC+02:00)

Tiros 1 - All Passes

Search period start: 30 March 2023 00:00
Search period end: 09 April 2023 00:00
Orbit: 627 x 662 km, 48.4° (Epoch: 30 March)

Date Brightness Start Highest point End Pass type
(mag) Time Alt. Az. Time Alt. Az. Time Alt. Az.
30 Mar - 10:44:17 10° SSW 10:48:52 49° SE 10:53:30 10° ENE visible
30 Mar - 12:26:39 10° W 12:31:07 39° NNW 12:35:38 10° NE visible
30 Mar - 14:10:37 10° NW 14:14:16 21° N 14:17:55 10° NE daylight
30 Mar - 15:53:29 10° NW 15:57:36 27° NNE 16:01:41 10° ENE daylight
30 Mar - 17:35:27 10° NW 17:40:15 85° NNE 17:45:01 10° SE daylight
30 Mar - 19:18:52 10° W 19:21:55 17° SW 19:24:56 10° S daylight
31 Mar - 09:28:57 10° S 09:32:17 19° SE 09:35:39 10° E visible
31 Mar - 11:09:14 10° WSW 11:14:00 78° NNW 11:18:49 10° NE visible
31 Mar - 12:52:41 10° WNW 12:56:43 26° NNW 13:00:46 10° NE visible
31 Mar - 14:36:23 10° NW 14:40:04 21° N 14:43:44 10° NE daylight
31 Mar - 16:18:36 10° NW 16:23:10 41° NNE 16:27:41 10° E daylight
31 Mar - 18:00:49 10° WNW 18:05:22 44° SW 18:09:51 10° SSE daylight
01 Apr - 09:52:40 10° SSW 09:57:10 44° SE 10:01:43 10° ENE visible
01 Apr - 11:34:49 10° W 11:39:21 42° NNW 11:43:55 10° NE visible
01 Apr - 13:18:46 10° NW 13:22:27 21° N 13:26:08 10° NE visible
01 Apr - 15:01:45 10° NW 15:05:48 26° NNE 15:09:50 10° ENE daylight
01 Apr - 16:43:43 10° NW 16:48:31 77° NNE 16:53:17 10° ESE daylight
01 Apr - 18:26:52 10° W 18:30:14 19° SW 18:33:36 10° S daylight
02 Apr - 08:37:35 10° S 08:40:36 17° SE 08:43:38 10° E night (unlit)
02 Apr - 10:17:29 10° SW 10:22:15 85° NW 10:27:04 10° NE visible
02 Apr - 12:00:49 10° WNW 12:04:54 27° NNW 12:09:01 10° NE visible
02 Apr - 13:44:35 10° NW 13:48:14 21° N 13:51:53 10° NE daylight
02 Apr - 15:26:53 10° NW 15:31:23 38° NNE 15:35:51 10° E daylight
02 Apr - 17:09:01 10° WNW 17:13:39 50° SW 17:18:14 10° SSE daylight
03 Apr - 09:01:04 10° SSW 09:05:27 39° SE 09:09:53 10° ENE night (unlit)
03 Apr - 10:43:00 10° W 10:47:34 45° NNW 10:52:10 10° NE visible
03 Apr - 12:26:54 10° WNW 12:30:37 22° N 12:34:20 10° NE visible
03 Apr - 14:10:00 10° NW 14:13:58 25° NNE 14:17:57 10° ENE daylight
03 Apr - 15:51:57 10° NW 15:56:46 70° NNE 16:01:31 10° ESE daylight
03 Apr - 17:34:54 10° W 17:38:33 22° SW 17:42:10 10° S daylight
04 Apr - 07:46:18 10° SSE 07:48:55 15° SE 07:51:33 10° E night (unlit)
04 Apr - 09:25:45 10° SW 09:30:30 86° SE 09:35:19 10° NE visible
04 Apr - 11:08:57 10° WNW 11:13:06 29° NNW 11:17:16 10° NE visible
04 Apr - 12:52:46 10° NW 12:56:23 21° N 13:00:02 10° NE visible
04 Apr - 14:35:08 10° NW 14:39:35 36° NNE 14:44:00 10° E daylight
04 Apr - 16:17:13 10° WNW 16:21:55 56° SW 16:26:34 10° SE daylight
05 Apr - 08:09:28 10° SSW 08:13:44 34° SE 08:18:02 10° ENE night (unlit)
05 Apr - 09:51:10 10° WSW 09:55:46 49° NNW 10:00:26 10° NE visible
05 Apr - 11:35:02 10° WNW 11:38:47 22° N 11:42:32 10° NE visible
05 Apr - 13:18:14 10° NW 13:22:08 24° NNE 13:26:03 10° ENE visible
05 Apr - 15:00:12 10° NW 15:04:59 64° NNE 15:09:44 10° ESE daylight
05 Apr - 16:42:58 10° W 16:46:50 25° SW 16:50:41 10° S daylight
06 Apr - 06:55:09 10° SSE 06:57:14 13° SE 06:59:19 10° ESE night (unlit)
06 Apr - 08:34:01 10° SW 08:38:44 78° SE 08:43:31 10° ENE night (unlit)
06 Apr - 10:17:04 10° W 10:21:16 30° NNW 10:25:30 10° NE visible
06 Apr - 12:00:56 10° NW 12:04:32 21° N 12:08:10 10° NE visible
06 Apr - 13:43:23 10° NW 13:47:45 34° NNE 13:52:07 10° E daylight
06 Apr - 15:25:24 10° WNW 15:30:09 63° SW 15:34:52 10° SE daylight
07 Apr - 07:17:53 10° SSW 07:22:00 31° SE 07:26:09 10° ENE night (unlit)
07 Apr - 08:59:21 10° WSW 09:03:58 53° NNW 09:08:39 10° NE visible
07 Apr - 10:43:08 10° WNW 10:46:55 23° N 10:50:43 10° NE visible
07 Apr - 12:26:26 10° NW 12:30:17 23° N 12:34:09 10° ENE visible
07 Apr - 14:08:26 10° NW 14:13:11 58° NNE 14:17:54 10° ESE daylight
07 Apr - 15:51:03 10° WNW 15:55:06 28° SW 15:59:09 10° SSE daylight
08 Apr - 06:04:15 10° SE 06:05:31 11° SE 06:06:48 10° ESE night (unlit)
08 Apr - 07:42:17 10° SW 07:46:58 70° SE 07:51:42 10° ENE night (unlit)
08 Apr - 09:25:10 10° W 09:29:26 32° NNW 09:33:43 10° NE visible
08 Apr - 11:09:04 10° NW 11:12:40 21° N 11:16:17 10° NE visible
08 Apr - 12:51:37 10° NW 12:55:55 32° NNE 13:00:13 10° E visible
08 Apr - 14:33:36 10° WNW 14:38:23 71° SW 14:43:08 10° SE daylight
08 Apr - 16:18:20 10° WSW 16:19:51 11° SW 16:21:22 10° SSW daylight
